GW2918 Weather Reports


time (UTC)temp
C
wind
direction
speed
KPH
gust
KPH
rain 1hr
cm
rain 24hr
cm
rain mn
cm
humidity
%
barometer
mb
20260904132533 22 336 3.2 4.8 0.00 0.00 0.00 85 1016.5
20260904131533 22 89 3.2 4.8 0.00 0.00 0.00 86 1016.4
20260904130528 22 1 1.6 4.8 0.00 0.00 0.00 88 1016.0
20260904125525 22 358 3.2 6.4 0.00 0.00 0.00 88 1016.4
20260904124521 22 221 0.0 4.8 0.00 0.00 0.00 90 1016.4
20260904123516 22 306 3.2 4.8 0.00 0.00 0.00 90 1016.5
20260904122513 21 98 0.0 8.0 0.00 0.00 0.00 93 1016.5
20260904121508 21 4 9.7 11.3 0.00 0.00 0.00 91 1016.5
20260904120506 20 275 1.6 6.4 0.00 0.00 0.00 97 1016.0
20260904115503 20 347 3.2 4.8 0.00 0.00 0.00 98 1016.1
20260904114457 20 326 1.6 6.4 0.00 0.00 0.00 97 1016.4
20260904113452 20 256 1.6 4.8 0.00 0.00 0.00 97 1016.6
20260904112447 19 257 3.2 3.2 0.00 0.00 0.00 99 1016.4
20260904111444 18 315 0.0 3.2 0.00 0.00 0.00 99 1016.4
20260904110445 18 73 1.6 3.2 0.00 0.00 0.00 99 1016.3
20260904105441 18 243 0.0 4.8 0.00 0.00 0.00 99 1016.1
20260904104436 18 307 4.8 6.4 0.00 0.00 0.00 99 1015.9
20260904103434 18 227 0.0 3.2 0.00 0.00 0.00 99 1015.9
20260904102431 18 248 0.0 3.2 0.00 0.00 0.00 99 1015.7
20260904101429 19 19 0.0 3.2 0.00 0.00 0.00 99 1015.8
20260904100426 19 66 0.0 14.5 0.00 0.00 0.00 99 1015.9
20260904095421 19 317 3.2 16.1 0.00 0.00 0.00 99 1015.9
20260904094417 20 333 1.6 4.8 0.00 0.00 0.00 99 1015.8
20260904093413 19 349 0.0 6.4 0.00 0.00 0.00 99 1015.8
20260904092411 20 197 0.0 4.8 0.00 0.00 0.00 99 1015.9
20260904091408 20 65 1.6 3.2 0.00 0.00 0.00 99 1016.0
20260904090405 20 157 3.2 6.4 0.00 0.00 0.00 99 1015.7
20260904085401 19 206 1.6 3.2 0.00 0.00 0.00 99 1016.0
20260904084357 19 314 0.0 3.2 0.00 0.00 0.00 99 1015.6
20260904083355 20 214 0.0 4.8 0.00 0.00 0.00 99 1015.4
20260904082351 20 1 4.8 4.8 0.00 0.00 0.00 99 1015.5
20260904081347 20 288 3.2 4.8 0.00 0.00 0.00 99 1015.3
20260904080344 20 257 3.2 3.2 0.00 0.00 0.00 99 1015.4
20260904075341 19 182 0.0 3.2 0.00 0.00 0.00 99 1015.4
20260904074340 19 88 1.6 1.6 0.00 0.00 0.00 99 1015.2
20260904073337 19 63 0.0 1.6 0.00 0.00 0.00 99 1014.9
20260904072332 19 135 0.0 3.2 0.00 0.00 0.00 99 1015.0
20260904071329 19 147 0.0 3.2 0.00 0.00 0.00 99 1015.1
20260904070328 19 160 0.0 1.6 0.00 0.00 0.00 99 1015.0
20260904065326 19 133 0.0 3.2 0.00 0.00 0.00 99 1014.9
20260904064322 20 170 0.0 3.2 0.00 0.00 0.00 99 1014.9
20260904063320 20 186 0.0 1.6 0.00 0.00 0.00 99 1014.8
20260904062317 19 139 0.0 3.2 0.00 0.00 0.00 99 1014.7
20260904061314 19 147 0.0 3.2 0.00 0.00 0.00 99 1014.8
20260904060311 19 181 0.0 3.2 0.00 0.00 0.00 99 1014.7
20260904055307 19 133 1.6 4.8 0.00 0.00 0.00 99 1014.8
20260904054304 19 113 3.2 3.2 0.00 0.00 0.00 99 1015.0
20260904053259 19 311 0.0 4.8 0.00 0.00 0.00 99 1015.3
20260904052257 20 56 0.0 1.6 0.00 0.00 0.00 99 1015.3
20260904051254 20 182 1.6 4.8 0.00 0.00 0.00 99 1015.5
20260904050252 20 265 0.0 3.2 0.00 0.00 0.00 99 1015.3
20260904045253 20 219 0.0 4.8 0.00 0.00 0.00 99 1015.2
20260904044250 20 266 3.2 3.2 0.00 0.00 0.00 99 1015.4
20260904043248 20 197 0.0 4.8 0.00 0.00 0.00 99 1015.1
20260904042245 20 195 0.0 1.6 0.00 0.00 0.00 99 1015.4
20260904041241 20 356 0.0 1.6 0.00 0.00 0.00 99 1015.2
20260904040238 20 307 0.0 1.6 0.00 0.00 0.00 99 1015.6
20260904035235 21 234 0.0 4.8 0.00 0.66 0.66 99 1015.6
20260904034235 21 246 0.0 4.8 0.00 0.66 0.66 99 1015.7
20260904033233 21 211 3.2 6.4 0.00 0.66 0.66 99 1015.9
20260904032234 21 131 0.0 1.6 0.00 0.66 0.66 99 1015.7
20260904031230 20 249 0.0 1.6 0.00 0.66 0.66 99 1015.7
20260904030227 21 201 3.2 4.8 0.00 0.66 0.66 99 1015.6
20260904025224 21 206 4.8 4.8 0.00 0.66 0.66 99 1015.6
20260904024221 20 215 3.2 3.2 0.00 0.66 0.66 99 1015.6
20260904023219 21 206 3.2 4.8 0.00 0.66 0.66 99 1015.6
20260904022216 20 179 1.6 4.8 0.00 0.66 0.66 99 1015.5
20260904021212 20 118 1.6 3.2 0.00 0.66 0.66 99 1015.6
20260904020207 20 147 0.0 3.2 0.00 0.66 0.66 99 1015.7
20260904015206 20 171 0.0 1.6 0.05 0.66 0.66 99 1015.6
20260904014206 21 50 0.0 1.6 0.00 0.64 0.64 99 1016.0
20260904013204 20 154 0.0 1.6 0.00 0.64 0.64 99 1016.1
20260904012159 21 135 0.0 1.6 0.00 0.64 0.64 99 1016.5
20260904011154 21 126 0.0 1.6 0.00 0.64 0.64 99 1016.4
20260904010151 21 180 0.0 1.6 0.00 0.64 0.64 99 1016.5
20260904005148 21 180 1.6 1.6 0.00 0.64 0.64 99 1016.1
20260904004143 21 145 0.0 3.2 0.00 0.64 0.64 99 1016.3
20260904003141 21 218 0.0 3.2 0.00 0.64 0.64 99 1016.5
20260904002137 21 198 0.0 1.6 0.00 0.64 0.64 99 1016.5
20260904001137 21 157 0.0 1.6 0.00 0.64 0.64 99 1016.3
20260904000134 21 322 0.0 0.0 0.00 0.64 0.64 99 1016.0
20260903235130 21 334 3.2 4.8 0.00 0.64 0.64 99 1016.0
20260903234126 21 179 0.0 3.2 0.00 0.64 0.64 99 1015.6
20260903233124 21 50 8.0 9.7 0.61 0.64 0.64 99 1015.5
20260903232120 22 74 4.8 11.3 0.00 0.53 0.53 95 1016.1
20260903231120 23 341 6.4 6.4 0.00 0.53 0.53 97 1015.8
20260903230120 23 180 0.0 3.2 0.00 0.53 0.53 96 1015.7
20260903225119 23 40 1.6 1.6 0.00 0.53 0.53 96 1016.0
20260903224117 23 159 0.0 1.6 0.00 0.53 0.53 95 1015.8
20260903223116 24 64 3.2 3.2 0.00 0.53 0.53 98 1015.6
20260903222115 24 152 0.0 1.6 0.00 0.53 0.53 94 1015.2
20260903221115 24 284 1.6 1.6 0.00 0.53 0.53 94 1015.6
20260903220114 24 36 0.0 3.2 0.00 0.53 0.53 94 1015.4
20260903215114 24 164 1.6 4.8 0.00 0.53 0.53 93 1015.6
20260903214108 24 59 3.2 4.8 0.00 0.53 0.53 94 1015.3
20260903213105 23 352 1.6 4.8 0.05 0.53 0.53 96 1015.4
20260903212101 25 94 3.2 6.4 0.05 0.53 0.53 90 1015.2
20260903211059 25 80 3.2 8.0 0.00 0.51 0.51 88 1015.4
20260903210055 26 74 6.4 6.4 0.00 0.51 0.51 86 1015.3
20260903205055 27 278 4.8 6.4 0.00 0.51 0.51 82 1015.2
20260903204051 27 309 3.2 4.8 0.00 0.51 0.51 81 1015.2
20260903203047 27 221 3.2 16.1 0.00 0.51 0.51 81 1014.9
20260903202044 27 208 1.6 6.4 0.00 0.51 0.51 79 1015.6
20260903201044 27 218 3.2 8.0 0.00 0.51 0.51 80 1015.6
20260903200040 27 229 3.2 8.0 0.00 0.51 0.51 81 1015.7
20260903195037 27 217 3.2 9.7 0.00 0.51 0.51 80 1015.6
20260903194033 28 253 3.2 6.4 0.00 0.51 0.51 80 1015.6
20260903193031 26 261 3.2 4.8 0.00 0.51 0.51 82 1015.7
20260903192028 26 260 1.6 4.8 0.00 0.51 0.51 84 1015.9
20260903191024 27 277 3.2 8.0 0.00 0.51 0.51 77 1016.3
20260903190023 26 304 3.2 8.0 0.00 0.51 0.51 78 1015.9
20260903185020 28 205 3.2 9.7 0.00 0.51 0.51 78 1016.0
20260903184017 27 282 3.2 6.4 0.00 0.51 0.51 80 1016.5
20260903183017 27 229 4.8 8.0 0.00 0.51 0.51 82 1016.7
20260903182013 26 220 8.0 16.1 0.00 0.51 0.51 82 1016.5
20260903181011 26 265 1.6 8.0 0.00 0.51 0.51 83 1016.5
20260903180005 26 202 3.2 9.7 0.00 0.51 0.51 83 1016.7
20260903175004 25 277 3.2 9.7 0.00 0.51 0.51 82 1016.8
20260903173959 26 213 3.2 12.9 0.00 0.51 0.51 84 1016.9
20260903172956 25 220 6.4 9.7 0.00 0.51 0.51 83 1016.6
20260903171952 26 275 3.2 8.0 0.00 0.51 0.51 81 1016.8
20260903170948 25 227 12.9 14.5 0.00 0.51 0.51 84 1016.7
20260903165948 25 263 1.6 6.4 0.00 0.51 0.51 83 1017.1
20260903164942 25 204 8.0 8.0 0.00 0.51 0.51 83 1017.2
20260903163942 25 225 1.6 8.0 0.00 0.51 0.51 84 1017.0
20260903162941 25 205 11.3 11.3 0.00 0.51 0.51 82 1017.0
20260903161938 24 203 9.7 11.3 0.00 0.51 0.51 85 1017.3
20260903160935 24 201 11.3 11.3 0.00 0.51 0.51 83 1017.5
20260903155933 24 196 3.2 11.3 0.00 0.51 0.51 84 1017.4
20260903154929 23 216 6.4 14.5 0.00 0.51 0.51 88 1017.8
20260903153926 23 207 1.6 9.7 0.00 0.51 0.51 87 1017.8
20260903152924 23 215 6.4 11.3 0.00 0.51 0.51 87 1017.9
20260903151920 23 228 3.2 11.3 0.00 0.51 0.51 88 1017.7
20260903150915 22 203 4.8 9.7 0.00 0.51 0.51 89 1017.8
20260903145911 22 232 0.0 9.7 0.00 0.51 0.51 92 1017.7
20260903144912 22 184 3.2 9.7 0.00 0.51 0.51 91 1017.7
20260903143908 21 194 6.4 12.9 0.00 0.51 0.51 92 1017.7
20260903142905 21 247 8.0 9.7 0.00 0.51 0.51 95 1017.4
20260903141902 20 234 6.4 16.1 0.00 0.51 0.51 95 1017.7
20260903140859 20 256 4.8 19.3 0.00 0.51 0.51 97 1017.8
20260903135855 20 31 3.2 24.1 0.00 0.51 0.51 97 1017.7
20260903134855 19 255 3.2 16.1 0.00 0.51 0.51 99 1017.7
20260903133854 19 232 9.7 12.9 0.00 0.51 0.51 99 1017.9